Location: Ciserano
(45.5833°N, 9.6000°E)
Time: 05:58:34
(UTC+00:00)

CENTAUR R/B - Pass Details

Date: 29 November 2020
Orbit: 750 x 1438 km, 63.4° (Epoch: 11 January)

Event Time Altitude Azimuth Distance (km) Brightness Sun altitude
Exits shadow 04:01:37 52° 270° (W) 1,679 3.2 -27.0°
Maximum altitude 04:02:51 56° 241° (WSW) 1,629 3.3 -26.8°
Drops below altitude 10° 04:11:24 10° 167° (SSE) 3,539 5.6 -25.3°
Sets 04:14:26 0° 163° (SSE) 4,508 6.3 -24.7°
